Printer-friendly version

IAU Minor Planet Center

Minor Planet Center

MPEC 2003-C36 : 2003 CJ11

The following Minor Planet Electronic Circular may be linked-to from your own Web pages, but must not otherwise be redistributed electronically.


Read MPEC 2003-C35 Read MPEC 2003-C37


M.P.E.C. 2003-C36                                Issued 2003 Feb. 6, 15:43 UT

     The Minor Planet Electronic Circulars contain information on unusual
         minor planets and routine data on comets.  They are published
   on behalf of Commission 20 of the International Astronomical Union by the
          Minor Planet Center, Smithsonian Astrophysical Observatory,
                          Cambridge, MA 02138, U.S.A.

             Prepared using the Tamkin Foundation Computer Network

                              MPC@CFA.HARVARD.EDU
          URL http://cfa-www.harvard.edu/iau/mpc.html  ISSN 1523-6714

                                   2003 CJ11

Observations:
     K03C11J* C2003 02 03.45521 15 26 21.66 +05 04 22.6          17.4 R      699
     K03C11J  C2003 02 03.47286 15 26 21.60 +05 04 31.1                      699
     K03C11J  C2003 02 03.49058 15 26 21.49 +05 04 38.4                      699
     K03C11J  C2003 02 03.50833 15 26 21.44 +05 04 46.7                      699
     K03C11J  C2003 02 04.10069 15 26 19.99 +05 09 14.8          16.9 R      J95
     K03C11J  C2003 02 04.11053 15 26 19.95 +05 09 17.9          17.2 R      J95
     K03C11J  C2003 02 04.11597 15 26 19.89 +05 09 21.6          17.5 R      J95
     K03C11J  C2003 02 04.12245 15 26 19.93 +05 09 22.7                      J95
     K03C11J  C2003 02 04.43866 15 26 18.69 +05 11 49.6          17.4 R      734
     K03C11J  C2003 02 04.44336 15 26 18.66 +05 11 51.8          17.4 R      734
     K03C11J  C2003 02 04.44830 15 26 18.64 +05 11 54.1          17.3 R      734
     K03C11J  C2003 02 05.16647 15 26 14.87 +05 17 26.1                      557
     K03C11J  C2003 02 05.16869 15 26 14.85 +05 17 27.0                      557
     K03C11J  C2003 02 05.17093 15 26 14.85 +05 17 27.8                      557
     K03C11J IC2003 02 05.44236 15 26 13.16 +05 19 37.4          17.0 R      850
     K03C11J  C2003 02 05.45764 15 26 13.04 +05 19 44.5          17.0 R      850
     K03C11J  C2003 02 05.47222 15 26 12.91 +05 19 51.3          16.7 R      850
     K03C11J  C2003 02 05.48611 15 26 12.79 +05 19 57.9          16.7 R      850
     K03C11J  C2003 02 06.41669 15 26 05.65 +05 27 21.7          17.5 R      926
     K03C11J  C2003 02 06.41828 15 26 05.60 +05 27 22.7          18.1 R      926
     K03C11J  C2003 02 06.41985 15 26 05.64 +05 27 23.3                      926
     K03C11J  C2003 02 06.52119 15 26 04.45 +05 28 11.3          18.0 R      926
     K03C11J  C2003 02 06.52280 15 26 04.51 +05 28 13.3          17.6 R      926

Observer details:
557 Ondrejov.  Observer L. Sarounova.  0.65-m f/3.6 reflector + CCD.
699 Lowell Observatory-LONEOS.  Observer B. A. Skiff.  0.59-m LONEOS Schmidt
    + CCD.
734 Farpoint Observatory.  Observer G. Hug.  0.30-m Schmidt-Cassegrain + CCD.
850 Cordell-Lorenz Observatory, Sewanee.  Observer D. T. Durig.  0.3-m f/5.75
    Schmidt-Cassegrain + CCD.
926 Tenagra II Observatory.  Observers P. R. Holvorcem, M. Schwartz.  0.81-m
    f/7 Ritchey-Chretien + CCD.
J95 Great Shefford.  Observer P. Birtwhistle.  0.30-m f/6.3 Schmidt-Cassegrain
    + CCD.

Orbital elements:
2003 CJ11
Epoch 2003 Jan. 21.0 TT = JDT 2452660.5                 MPC
M  14.92973              (2000.0)            P               Q
n   0.23663121     Peri.  356.09660     +0.53200711     -0.78678730
a   2.5887376      Node    61.49647     +0.78619310     +0.32174568
e   0.8341337      Incl.   20.86144     +0.31443416     +0.52673093
P   4.17           H   14.9           G   0.15
From 23 observations 2003 Feb. 3-6.

Ephemeris:
2003 CJ11                a,e,i = 2.59, 0.83, 21                  q = 0.4294
Date    TT    R. A. (2000) Decl.     Delta      r     Elong.  Phase     V
2003 01 31    15 26.22   +04 39.7    1.162    1.434    83.4    43.0    17.7
2003 02 10    15 25.27   +05 57.3    1.162    1.567    93.3    38.9    17.8
2003 02 20    15 19.92   +07 31.7    1.156    1.694   104.1    34.5    17.8
2003 03 02    15 09.83   +09 18.3    1.151    1.815   115.7    29.5    17.8
2003 03 12    14 55.03   +11 07.9    1.155    1.932   127.9    23.9    17.8
2003 03 22    14 36.35   +12 47.0    1.178    2.043   139.9    18.3    17.8
2003 04 01    14 15.41   +14 01.8    1.226    2.150   150.0    13.4    17.8
2003 04 11    13 54.37   +14 42.3    1.304    2.254   155.4    10.7    17.9
2003 04 21    13 35.32   +14 46.4    1.412    2.353   153.2    11.1    18.2
2003 05 01    13 19.61   +14 18.9    1.549    2.449   145.9    13.3    18.6
2003 05 11    13 07.83   +13 27.5    1.710    2.541   136.7    15.8    19.0
2003 05 21    12 59.90   +12 20.2    1.892    2.630   127.2    17.8    19.3
2003 05 31    12 55.38   +11 03.0    2.089    2.717   118.0    19.2    19.6
2003 06 10    12 53.76   +09 40.1    2.297    2.800   109.2    20.0    19.9
2003 06 20    12 54.51   +08 14.3    2.513    2.881   100.7    20.3    20.2
2003 06 30    12 57.17   +06 47.4    2.733    2.959    92.6    20.1    20.4
2003 07 10    13 01.38   +05 20.5    2.953    3.035    84.8    19.5    20.6
2003 07 20    13 06.82   +03 54.4    3.170    3.108    77.2    18.6    20.8
2003 07 30    13 13.27   +02 29.5    3.383    3.179    69.8    17.4    21.0
2003 08 09    13 20.53   +01 06.3    3.588    3.248    62.6    16.1    21.1

Brian G. Marsden             (C) Copyright 2003 MPC           M.P.E.C. 2003-C36

Read MPEC 2003-C35 Read MPEC 2003-C37


Our Web policy. Index to the CBAT/MPC/ICQ pages.


Valid HTML 4.01!